Time,TemperatureF,DewpointF,PressureIn,WindDirection,WindDirectionDegrees,WindSpeedMPH,WindSpeedGustMPH,Humidity,HourlyPrecipIn,Conditions,Clouds,dailyrainin,SolarRadiationWatts/m^2,SoftwareType,DateUTC
2013-01-26 00:00:00,59.4,54.9,30.24,WSW,239,4.0,4.0,85,0.00,,,0.00,0,Wunderground v.1.15,2013-01-26 05:00:00,
2013-01-26 00:01:00,59.3,54.8,30.24,WSW,239,4.0,4.0,85,0.00,,,0.00,0,Wunderground v.1.15,2013-01-26 05:01:00,
2013-01-26 00:04:00,59.3,54.8,30.24,WSW,239,3.0,4.0,85,0.00,,,0.00,0,Wunderground v.1.15,2013-01-26 05:04:00,
2013-01-26 00:08:00,59.2,54.7,30.24,WSW,239,2.0,4.0,85,0.00,,,0.00,0,Wunderground v.1.15,2013-01-26 05:08:00,
2013-01-26 00:14:00,59.0,54.2,30.24,WSW,239,2.0,3.0,84,0.00,,,0.00,0,Wunderground v.1.15,2013-01-26 05:14:00,
2013-01-26 00:20:00,58.8,54.0,30.24,WSW,239,3.0,3.0,84,0.00,,,0.00,0,Wunderground v.1.15,2013-01-26 05:20:00,
2013-01-26 00:26:00,58.6,53.8,30.24,WSW,240,3.0,3.0,84,0.00,,,0.00,0,Wunderground v.1.15,2013-01-26 05:26:00,
2013-01-26 00:31:00,58.4,53.6,30.24,WSW,240,2.0,2.0,84,0.00,,,0.00,0,Wunderground v.1.15,2013-01-26 05:31:00,
2013-01-26 00:38:00,58.2,53.4,30.24,WSW,240,2.0,2.0,84,0.00,,,0.00,0,Wunderground v.1.15,2013-01-26 05:38:00,
2013-01-26 00:44:00,58.0,53.2,30.25,WSW,240,2.0,2.0,84,0.00,,,0.00,0,Wunderground v.1.15,2013-01-26 05:44:00,
2013-01-26 00:50:00,57.8,53.3,30.25,WSW,240,2.0,2.0,85,0.00,,,0.00,0,Wunderground v.1.15,2013-01-26 05:50:00,
2013-01-26 00:56:00,57.6,53.1,30.25,WSW,240,1.0,2.0,85,0.00,,,0.00,0,Wunderground v.1.15,2013-01-26 05:56:00,
2013-01-26 01:01:00,57.3,52.5,30.24,WSW,240,1.0,2.0,84,0.00,,,0.00,0,Wunderground v.1.15,2013-01-26 06:01:00,
2013-01-26 01:08:00,57.1,52.3,30.25,WSW,240,1.0,2.0,84,0.00,,,0.00,0,Wunderground v.1.15,2013-01-26 06:08:00,
2013-01-26 01:14:00,56.9,52.1,30.25,WSW,240,0.0,1.0,84,0.00,,,0.00,0,Wunderground v.1.15,2013-01-26 06:14:00,
2013-01-26 01:20:00,56.9,51.8,30.25,WSW,251,1.0,2.0,83,0.00,,,0.00,0,Wunderground v.1.15,2013-01-26 06:20:00,
2013-01-26 01:26:00,57.1,51.3,30.25,WSW,254,2.0,3.0,81,0.00,,,0.00,0,Wunderground v.1.15,2013-01-26 06:26:00,
2013-01-26 01:32:00,57.3,51.2,30.25,WSW,254,1.0,2.0,80,0.00,,,0.00,0,Wunderground v.1.15,2013-01-26 06:32:00,
2013-01-26 01:38:00,57.3,50.8,30.25,WSW,254,0.0,2.0,79,0.00,,,0.00,0,Wunderground v.1.15,2013-01-26 06:38:00,
2013-01-26 01:44:00,57.2,50.4,30.25,WSW,254,0.0,0.0,78,0.00,,,0.00,0,Wunderground v.1.15,2013-01-26 06:44:00,
2013-01-26 01:50:00,57.0,50.5,30.25,WSW,254,0.0,0.0,79,0.00,,,0.00,0,Wunderground v.1.15,2013-01-26 06:50:00,
2013-01-26 01:56:00,56.9,50.1,30.25,WSW,254,0.0,0.0,78,0.00,,,0.00,0,Wunderground v.1.15,2013-01-26 06:56:00,
2013-01-26 02:02:00,56.7,49.9,30.25,WSW,254,0.0,0.0,78,0.00,,,0.00,0,Wunderground v.1.15,2013-01-26 07:02:00,
2013-01-26 02:08:00,56.5,49.7,30.25,WSW,254,0.0,0.0,78,0.00,,,0.00,0,Wunderground v.1.15,2013-01-26 07:08:00,
2013-01-26 02:14:00,56.4,49.6,30.24,WSW,254,0.0,0.0,78,0.00,,,0.00,0,Wunderground v.1.15,2013-01-26 07:14:00,
2013-01-26 02:19:00,56.4,49.6,30.25,WSW,254,0.0,0.0,78,0.00,,,0.00,0,Wunderground v.1.15,2013-01-26 07:19:00,
2013-01-26 02:26:00,56.4,49.6,30.24,WSW,254,0.0,0.0,78,0.00,,,0.00,0,Wunderground v.1.15,2013-01-26 07:26:00,
2013-01-26 02:32:00,56.3,49.5,30.24,WSW,254,0.0,0.0,78,0.00,,,0.00,0,Wunderground v.1.15,2013-01-26 07:32:00,
2013-01-26 02:38:00,56.1,49.3,30.24,WSW,254,0.0,0.0,78,0.00,,,0.00,0,Wunderground v.1.15,2013-01-26 07:38:00,
2013-01-26 02:44:00,56.0,49.6,30.24,WSW,254,0.0,0.0,79,0.00,,,0.00,0,Wunderground v.1.15,2013-01-26 07:44:00,
2013-01-26 02:49:00,55.8,49.4,30.24,WSW,254,0.0,0.0,79,0.00,,,0.00,0,Wunderground v.1.15,2013-01-26 07:49:00,
2013-01-26 02:56:00,55.6,49.2,30.23,WSW,254,0.0,0.0,79,0.00,,,0.00,0,Wunderground v.1.15,2013-01-26 07:56:00,
2013-01-26 03:02:00,55.4,49.0,30.23,WSW,254,0.0,0.0,79,0.00,,,0.00,0,Wunderground v.1.15,2013-01-26 08:02:00,
2013-01-26 03:08:00,55.2,49.1,30.23,WSW,254,0.0,0.0,80,0.00,,,0.00,0,Wunderground v.1.15,2013-01-26 08:08:00,
2013-01-26 03:14:00,54.8,48.7,30.23,WSW,254,0.0,2.0,80,0.00,,,0.00,0,Wunderground v.1.15,2013-01-26 08:14:00,
2013-01-26 03:19:00,54.4,48.7,30.22,WSW,254,1.0,2.0,81,0.00,,,0.00,0,Wunderground v.1.15,2013-01-26 08:19:00,
2013-01-26 03:26:00,54.2,48.5,30.23,WSW,254,1.0,2.0,81,0.00,,,0.00,0,Wunderground v.1.15,2013-01-26 08:26:00,
2013-01-26 03:32:00,54.1,48.4,30.22,WSW,254,0.0,1.0,81,0.00,,,0.00,0,Wunderground v.1.15,2013-01-26 08:32:00,
2013-01-26 03:38:00,54.1,48.4,30.22,WSW,254,0.0,1.0,81,0.00,,,0.00,0,Wunderground v.1.15,2013-01-26 08:38:00,
2013-01-26 03:44:00,54.0,48.3,30.22,WSW,254,0.0,0.0,81,0.00,,,0.00,0,Wunderground v.1.15,2013-01-26 08:44:00,
2013-01-26 03:50:00,54.0,48.3,30.23,WSW,254,0.0,0.0,81,0.00,,,0.00,0,Wunderground v.1.15,2013-01-26 08:50:00,
2013-01-26 03:56:00,53.9,48.2,30.23,WSW,254,0.0,0.0,81,0.00,,,0.00,0,Wunderground v.1.15,2013-01-26 08:56:00,
2013-01-26 04:01:00,53.8,48.1,30.23,WSW,254,0.0,0.0,81,0.00,,,0.00,0,Wunderground v.1.15,2013-01-26 09:01:00,
2013-01-26 04:08:00,53.7,48.0,30.23,WSW,254,0.0,0.0,81,0.00,,,0.00,0,Wunderground v.1.15,2013-01-26 09:08:00,
2013-01-26 04:14:00,53.5,48.1,30.23,WSW,254,0.0,0.0,82,0.00,,,0.00,0,Wunderground v.1.15,2013-01-26 09:14:00,
2013-01-26 04:20:00,53.4,48.4,30.23,WSW,254,0.0,0.0,83,0.00,,,0.00,0,Wunderground v.1.15,2013-01-26 09:20:00,
2013-01-26 04:26:00,53.3,48.6,30.23,WSW,254,0.0,0.0,84,0.00,,,0.00,0,Wunderground v.1.15,2013-01-26 09:26:00,
2013-01-26 04:32:00,53.1,48.7,30.23,WSW,254,0.0,0.0,85,0.00,,,0.00,0,Wunderground v.1.15,2013-01-26 09:32:00,
2013-01-26 04:38:00,53.0,48.6,30.23,WSW,254,0.0,0.0,85,0.00,,,0.00,0,Wunderground v.1.15,2013-01-26 09:38:00,
2013-01-26 04:44:00,52.8,48.4,30.23,WSW,254,0.0,0.0,85,0.00,,,0.00,0,Wunderground v.1.15,2013-01-26 09:44:00,
2013-01-26 04:50:00,52.6,48.2,30.23,WSW,254,0.0,0.0,85,0.00,,,0.00,0,Wunderground v.1.15,2013-01-26 09:50:00,
2013-01-26 04:56:00,52.4,48.0,30.23,WSW,254,0.0,0.0,85,0.00,,,0.00,0,Wunderground v.1.15,2013-01-26 09:56:00,
2013-01-26 05:02:00,52.1,47.4,30.23,WSW,254,0.0,0.0,84,0.00,,,0.00,0,Wunderground v.1.15,2013-01-26 10:02:00,
2013-01-26 05:08:00,51.8,47.4,30.23,WSW,254,0.0,0.0,85,0.00,,,0.00,0,Wunderground v.1.15,2013-01-26 10:08:00,
2013-01-26 05:13:00,51.5,47.1,30.23,WSW,254,0.0,0.0,85,0.00,,,0.00,0,Wunderground v.1.15,2013-01-26 10:13:00,
2013-01-26 05:20:00,51.3,47.3,30.23,WSW,254,0.0,0.0,86,0.00,,,0.00,0,Wunderground v.1.15,2013-01-26 10:20:00,
2013-01-26 05:26:00,51.1,47.4,30.23,WSW,254,0.0,0.0,87,0.00,,,0.00,0,Wunderground v.1.15,2013-01-26 10:26:00,
2013-01-26 05:32:00,50.9,47.2,30.23,WSW,254,0.0,0.0,87,0.00,,,0.00,0,Wunderground v.1.15,2013-01-26 10:32:00,
2013-01-26 05:37:00,50.8,47.4,30.24,WSW,254,0.0,0.0,88,0.00,,,0.00,0,Wunderground v.1.15,2013-01-26 10:37:00,
2013-01-26 05:44:00,50.8,47.7,30.24,WSW,254,0.0,0.0,89,0.00,,,0.00,0,Wunderground v.1.15,2013-01-26 10:44:00,
2013-01-26 05:50:00,50.8,48.0,30.24,WSW,254,0.0,0.0,90,0.00,,,0.00,0,Wunderground v.1.15,2013-01-26 10:50:00,
2013-01-26 05:56:00,50.9,48.1,30.24,WSW,254,0.0,0.0,90,0.00,,,0.00,0,Wunderground v.1.15,2013-01-26 10:56:00,
2013-01-26 06:02:00,51.0,48.5,30.24,WSW,254,0.0,2.0,91,0.00,,,0.00,0,Wunderground v.1.15,2013-01-26 11:02:00,
2013-01-26 06:08:00,51.3,48.5,30.24,WSW,254,1.0,2.0,90,0.00,,,0.00,0,Wunderground v.1.15,2013-01-26 11:08:00,
2013-01-26 06:14:00,51.4,48.6,30.25,WSW,254,0.0,1.0,90,0.00,,,0.00,0,Wunderground v.1.15,2013-01-26 11:14:00,
2013-01-26 06:20:00,51.5,48.4,30.25,WSW,254,0.0,0.0,89,0.00,,,0.00,0,Wunderground v.1.15,2013-01-26 11:20:00,
2013-01-26 06:26:00,51.6,48.5,30.25,WSW,254,0.0,0.0,89,0.00,,,0.00,0,Wunderground v.1.15,2013-01-26 11:26:00,
2013-01-26 06:32:00,51.5,48.4,30.25,WSW,254,0.0,0.0,89,0.00,,,0.00,0,Wunderground v.1.15,2013-01-26 11:32:00,
2013-01-26 06:38:00,51.5,48.1,30.25,WSW,254,0.0,0.0,88,0.00,,,0.00,0,Wunderground v.1.15,2013-01-26 11:38:00,
2013-01-26 06:44:00,51.3,47.9,30.25,WSW,254,0.0,0.0,88,0.00,,,0.00,0,Wunderground v.1.15,2013-01-26 11:44:00,
2013-01-26 06:50:00,51.1,47.7,30.25,WSW,254,0.0,0.0,88,0.00,,,0.00,0,Wunderground v.1.15,2013-01-26 11:50:00,
2013-01-26 06:56:00,51.0,47.6,30.25,WSW,254,0.0,0.0,88,0.00,,,0.00,0,Wunderground v.1.15,2013-01-26 11:56:00,
2013-01-26 07:02:00,50.8,47.4,30.25,WSW,254,0.0,0.0,88,0.00,,,0.00,0,Wunderground v.1.15,2013-01-26 12:02:00,
2013-01-26 07:08:00,50.6,47.2,30.25,WSW,254,0.0,0.0,88,0.00,,,0.00,0,Wunderground v.1.15,2013-01-26 12:08:00,
2013-01-26 07:14:00,50.4,47.0,30.26,WSW,254,0.0,0.0,88,0.00,,,0.00,5,Wunderground v.1.15,2013-01-26 12:14:00,
2013-01-26 07:20:00,50.3,46.9,30.26,WSW,254,0.0,0.0,88,0.00,,,0.00,11,Wunderground v.1.15,2013-01-26 12:20:00,
2013-01-26 07:26:00,50.1,47.0,30.26,WSW,254,0.0,0.0,89,0.00,,,0.00,16,Wunderground v.1.15,2013-01-26 12:26:00,
2013-01-26 07:32:00,50.1,47.0,30.26,WSW,254,0.0,0.0,89,0.00,,,0.00,19,Wunderground v.1.15,2013-01-26 12:32:00,
2013-01-26 07:38:00,50.2,47.1,30.26,WSW,254,0.0,0.0,89,0.00,,,0.00,25,Wunderground v.1.15,2013-01-26 12:38:00,
2013-01-26 07:43:00,50.5,47.4,30.27,WSW,254,0.0,0.0,89,0.00,,,0.00,33,Wunderground v.1.15,2013-01-26 12:43:00,
2013-01-26 07:50:00,50.9,47.5,30.27,WSW,254,0.0,0.0,88,0.00,,,0.00,51,Wunderground v.1.15,2013-01-26 12:50:00,
2013-01-26 07:56:00,51.7,48.0,30.27,WSW,256,1.0,2.0,87,0.00,,,0.00,67,Wunderground v.1.15,2013-01-26 12:56:00,
2013-01-26 08:02:00,52.6,48.2,30.27,WSW,256,2.0,2.0,85,0.00,,,0.00,81,Wunderground v.1.15,2013-01-26 13:02:00,
2013-01-26 08:08:00,53.4,48.7,30.27,WSW,256,0.0,2.0,84,0.00,,,0.00,97,Wunderground v.1.15,2013-01-26 13:08:00,
2013-01-26 08:13:00,54.1,49.1,30.27,WSW,256,0.0,0.0,83,0.00,,,0.00,113,Wunderground v.1.15,2013-01-26 13:13:00,
2013-01-26 08:20:00,54.8,49.4,30.27,WSW,256,0.0,1.0,82,0.00,,,0.00,132,Wunderground v.1.15,2013-01-26 13:20:00,
2013-01-26 08:26:00,55.4,49.7,30.27,WSW,256,1.0,2.0,81,0.00,,,0.00,155,Wunderground v.1.15,2013-01-26 13:26:00,
2013-01-26 08:32:00,56.0,50.3,30.28,WSW,256,2.0,2.0,81,0.00,,,0.00,176,Wunderground v.1.15,2013-01-26 13:32:00,
2013-01-26 08:38:00,56.6,50.8,30.28,WSW,256,1.0,2.0,81,0.00,,,0.00,193,Wunderground v.1.15,2013-01-26 13:38:00,
2013-01-26 08:44:00,57.3,51.5,30.28,WSW,256,0.0,1.0,81,0.00,,,0.00,214,Wunderground v.1.15,2013-01-26 13:44:00,
2013-01-26 08:50:00,58.0,51.9,30.28,WSW,256,0.0,0.0,80,0.00,,,0.00,236,Wunderground v.1.15,2013-01-26 13:50:00,
2013-01-26 08:56:00,58.9,52.7,30.29,WNW,286,0.0,3.0,80,0.00,,,0.00,253,Wunderground v.1.15,2013-01-26 13:56:00,
2013-01-26 09:02:00,59.7,52.8,30.29,WNW,300,3.0,6.0,78,0.00,,,0.00,274,Wunderground v.1.15,2013-01-26 14:02:00,
2013-01-26 09:08:00,60.3,53.1,30.30,NW,309,4.0,7.0,77,0.00,,,0.00,292,Wunderground v.1.15,2013-01-26 14:08:00,
2013-01-26 09:14:00,60.9,53.6,30.30,NNW,333,3.0,9.0,77,0.00,,,0.00,311,Wunderground v.1.15,2013-01-26 14:14:00,
2013-01-26 09:20:00,62.1,53.7,30.30,NW,304,3.0,3.0,74,0.00,,,0.00,329,Wunderground v.1.15,2013-01-26 14:20:00,
2013-01-26 09:26:00,62.9,53.7,30.30,NNW,327,3.0,4.0,72,0.00,,,0.00,348,Wunderground v.1.15,2013-01-26 14:26:00,
2013-01-26 09:32:00,63.7,54.1,30.30,NNW,327,2.0,3.0,71,0.00,,,0.00,366,Wunderground v.1.15,2013-01-26 14:32:00,
2013-01-26 09:38:00,64.0,53.6,30.30,NW,307,3.0,5.0,69,0.00,,,0.00,383,Wunderground v.1.15,2013-01-26 14:38:00,
2013-01-26 09:44:00,64.5,53.7,30.30,NNW,344,3.0,4.0,68,0.00,,,0.00,399,Wunderground v.1.15,2013-01-26 14:44:00,
2013-01-26 09:50:00,64.8,53.6,30.30,WNW,293,3.0,3.0,67,0.00,,,0.00,418,Wunderground v.1.15,2013-01-26 14:50:00,
2013-01-26 09:56:00,65.4,54.2,30.30,NW,308,3.0,3.0,67,0.00,,,0.00,434,Wunderground v.1.15,2013-01-26 14:56:00,
2013-01-26 10:01:00,65.9,55.0,30.30,NW,321,1.0,2.0,68,0.00,,,0.00,452,Wunderground v.1.15,2013-01-26 15:01:00,
2013-01-26 10:08:00,65.0,55.8,30.30,NNE,16,2.0,4.0,72,0.00,,,0.00,468,Wunderground v.1.15,2013-01-26 15:08:00,
2013-01-26 10:14:00,64.9,55.7,30.30,NNE,19,3.0,3.0,72,0.00,,,0.00,487,Wunderground v.1.15,2013-01-26 15:14:00,
2013-01-26 10:20:00,65.3,55.7,30.30,NNE,19,2.0,3.0,71,0.00,,,0.00,501,Wunderground v.1.15,2013-01-26 15:20:00,
2013-01-26 10:26:00,65.7,56.0,30.30,NNE,19,2.0,3.0,71,0.00,,,0.00,515,Wunderground v.1.15,2013-01-26 15:26:00,
2013-01-26 10:32:00,65.6,56.3,30.30,NNE,23,2.0,4.0,72,0.00,,,0.00,531,Wunderground v.1.15,2013-01-26 15:32:00,
2013-01-26 10:38:00,65.3,56.4,30.30,NE,36,3.0,5.0,73,0.00,,,0.00,545,Wunderground v.1.15,2013-01-26 15:38:00,
2013-01-26 10:44:00,65.1,56.2,30.30,ENE,63,4.0,5.0,73,0.00,,,0.00,557,Wunderground v.1.15,2013-01-26 15:44:00,
2013-01-26 10:50:00,66.3,56.2,30.30,North,9,3.0,6.0,70,0.00,,,0.00,571,Wunderground v.1.15,2013-01-26 15:50:00,
2013-01-26 10:56:00,66.4,56.7,30.30,NNE,17,3.0,6.0,71,0.00,,,0.00,580,Wunderground v.1.15,2013-01-26 15:56:00,
2013-01-26 11:02:00,66.5,55.6,30.30,North,11,3.0,4.0,68,0.00,,,0.00,594,Wunderground v.1.15,2013-01-26 16:02:00,
2013-01-26 11:08:00,66.8,55.9,30.30,NNE,27,4.0,4.0,68,0.00,,,0.00,605,Wunderground v.1.15,2013-01-26 16:08:00,
2013-01-26 11:14:00,67.0,55.3,30.29,NNE,31,4.0,6.0,66,0.00,,,0.00,617,Wunderground v.1.15,2013-01-26 16:14:00,
2013-01-26 11:20:00,67.3,55.5,30.29,North,5,4.0,4.0,66,0.00,,,0.00,626,Wunderground v.1.15,2013-01-26 16:20:00,
2013-01-26 11:26:00,67.7,55.5,30.28,North,10,4.0,7.0,65,0.00,,,0.00,636,Wunderground v.1.15,2013-01-26 16:26:00,
2013-01-26 11:32:00,67.6,55.8,30.28,NNE,24,4.0,4.0,66,0.00,,,0.00,643,Wunderground v.1.15,2013-01-26 16:32:00,
2013-01-26 11:38:00,67.9,55.3,30.28,NNE,28,4.0,9.0,64,0.00,,,0.00,649,Wunderground v.1.15,2013-01-26 16:38:00,
2013-01-26 11:44:00,67.8,55.6,30.28,NNE,31,5.0,6.0,65,0.00,,,0.00,657,Wunderground v.1.15,2013-01-26 16:44:00,
2013-01-26 11:50:00,68.2,55.6,30.28,NNE,17,5.0,5.0,64,0.00,,,0.00,666,Wunderground v.1.15,2013-01-26 16:50:00,
2013-01-26 11:56:00,68.2,55.6,30.27,NNE,24,4.0,5.0,64,0.00,,,0.00,668,Wunderground v.1.15,2013-01-26 16:56:00,
2013-01-26 12:02:00,68.2,56.0,30.27,North,9,4.0,4.0,65,0.00,,,0.00,677,Wunderground v.1.15,2013-01-26 17:02:00,
2013-01-26 12:08:00,68.6,55.9,30.26,North,10,5.0,9.0,64,0.00,,,0.00,679,Wunderground v.1.15,2013-01-26 17:08:00,
2013-01-26 12:14:00,68.5,55.8,30.26,NNE,18,4.0,5.0,64,0.00,,,0.00,682,Wunderground v.1.15,2013-01-26 17:14:00,
2013-01-26 12:20:00,68.7,55.6,30.26,NE,36,3.0,3.0,63,0.00,,,0.00,657,Wunderground v.1.15,2013-01-26 17:20:00,
2013-01-26 12:26:00,69.3,55.3,30.26,NE,41,4.0,4.0,61,0.00,,,0.00,689,Wunderground v.1.15,2013-01-26 17:26:00,
2013-01-26 12:32:00,69.3,55.3,30.26,NNE,28,4.0,6.0,61,0.00,,,0.00,693,Wunderground v.1.15,2013-01-26 17:32:00,
2013-01-26 12:38:00,69.7,54.7,30.25,NNE,23,5.0,9.0,59,0.00,,,0.00,694,Wunderground v.1.15,2013-01-26 17:38:00,
2013-01-26 12:44:00,69.5,54.5,30.25,NNE,22,5.0,9.0,59,0.00,,,0.00,698,Wunderground v.1.15,2013-01-26 17:44:00,
2013-01-26 12:50:00,70.2,54.7,30.24,NNE,22,5.0,6.0,58,0.00,,,0.00,694,Wunderground v.1.15,2013-01-26 17:50:00,
2013-01-26 12:56:00,70.7,54.7,30.24,NNE,14,5.0,6.0,57,0.00,,,0.00,694,Wunderground v.1.15,2013-01-26 17:56:00,
2013-01-26 13:02:00,70.8,54.8,30.24,North,5,4.0,7.0,57,0.00,,,0.00,694,Wunderground v.1.15,2013-01-26 18:02:00,
2013-01-26 13:08:00,70.8,54.3,30.23,NNE,13,4.0,10.0,56,0.00,,,0.00,693,Wunderground v.1.15,2013-01-26 18:08:00,
2013-01-26 13:14:00,70.5,53.6,30.23,NNE,22,6.0,6.0,55,0.00,,,0.00,686,Wunderground v.1.15,2013-01-26 18:14:00,
2013-01-26 13:20:00,70.7,53.7,30.22,North,11,4.0,6.0,55,0.00,,,0.00,689,Wunderground v.1.15,2013-01-26 18:20:00,
2013-01-26 13:25:00,71.1,54.1,30.22,NNE,22,4.0,7.0,55,0.00,,,0.00,682,Wunderground v.1.15,2013-01-26 18:25:00,
2013-01-26 13:32:00,71.0,55.0,30.22,North,9,5.0,5.0,57,0.00,,,0.00,671,Wunderground v.1.15,2013-01-26 18:32:00,
2013-01-26 13:38:00,71.1,54.1,30.22,NE,41,4.0,7.0,55,0.00,,,0.00,673,Wunderground v.1.15,2013-01-26 18:38:00,
2013-01-26 13:44:00,70.8,57.6,30.21,NE,34,4.0,7.0,63,0.00,,,0.00,664,Wunderground v.1.15,2013-01-26 18:44:00,
2013-01-26 13:50:00,70.6,56.9,30.21,ENE,61,4.0,4.0,62,0.00,,,0.00,656,Wunderground v.1.15,2013-01-26 18:50:00,
2013-01-26 13:56:00,70.7,57.5,30.21,NE,49,4.0,6.0,63,0.00,,,0.00,650,Wunderground v.1.15,2013-01-26 18:56:00,
2013-01-26 14:02:00,70.3,57.5,30.21,ENE,69,6.0,6.0,64,0.00,,,0.00,640,Wunderground v.1.15,2013-01-26 19:02:00,
2013-01-26 14:07:00,70.2,57.9,30.21,NE,56,5.0,7.0,65,0.00,,,0.00,631,Wunderground v.1.15,2013-01-26 19:07:00,
2013-01-26 14:14:00,70.1,57.8,30.20,NE,52,4.0,5.0,65,0.00,,,0.00,621,Wunderground v.1.15,2013-01-26 19:14:00,
2013-01-26 14:19:00,70.5,57.3,30.20,NE,56,4.0,4.0,63,0.00,,,0.00,612,Wunderground v.1.15,2013-01-26 19:19:00,
2013-01-26 14:26:00,71.0,57.8,30.20,NE,36,3.0,4.0,63,0.00,,,0.00,592,Wunderground v.1.15,2013-01-26 19:26:00,
2013-01-26 14:31:00,70.9,57.2,30.20,NE,34,3.0,10.0,62,0.00,,,0.00,585,Wunderground v.1.15,2013-01-26 19:31:00,
2013-01-26 14:38:00,70.6,57.8,30.19,NE,51,4.0,10.0,64,0.00,,,0.00,575,Wunderground v.1.15,2013-01-26 19:38:00,
2013-01-26 14:44:00,70.6,58.3,30.19,NE,55,4.0,9.0,65,0.00,,,0.00,564,Wunderground v.1.15,2013-01-26 19:44:00,
2013-01-26 14:50:00,70.6,58.3,30.19,NE,53,4.0,4.0,65,0.00,,,0.00,552,Wunderground v.1.15,2013-01-26 19:50:00,
2013-01-26 14:56:00,70.7,58.8,30.19,ENE,76,4.0,4.0,66,0.00,,,0.00,538,Wunderground v.1.15,2013-01-26 19:56:00,
2013-01-26 15:02:00,70.4,58.9,30.19,East,82,3.0,4.0,67,0.00,,,0.00,527,Wunderground v.1.15,2013-01-26 20:02:00,
2013-01-26 15:08:00,70.4,58.9,30.19,ENE,76,3.0,5.0,67,0.00,,,0.00,512,Wunderground v.1.15,2013-01-26 20:08:00,
2013-01-26 15:14:00,70.0,58.5,30.19,ENE,61,3.0,5.0,67,0.00,,,0.00,501,Wunderground v.1.15,2013-01-26 20:14:00,
2013-01-26 15:20:00,70.0,59.0,30.19,ENE,60,3.0,3.0,68,0.00,,,0.00,485,Wunderground v.1.15,2013-01-26 20:20:00,
2013-01-26 15:26:00,69.9,58.9,30.19,NNE,32,3.0,7.0,68,0.00,,,0.00,468,Wunderground v.1.15,2013-01-26 20:26:00,
2013-01-26 15:32:00,69.6,59.0,30.19,NNE,28,4.0,4.0,69,0.00,,,0.00,452,Wunderground v.1.15,2013-01-26 20:32:00,
2013-01-26 15:38:00,69.5,59.3,30.19,ENE,65,5.0,6.0,70,0.00,,,0.00,434,Wunderground v.1.15,2013-01-26 20:38:00,
2013-01-26 15:44:00,69.5,59.7,30.19,ENE,59,4.0,5.0,71,0.00,,,0.00,417,Wunderground v.1.15,2013-01-26 20:44:00,
2013-01-26 15:50:00,69.4,59.6,30.19,NE,43,3.0,6.0,71,0.00,,,0.00,397,Wunderground v.1.15,2013-01-26 20:50:00,
2013-01-26 15:56:00,69.3,59.5,30.19,NE,55,3.0,6.0,71,0.00,,,0.00,381,Wunderground v.1.15,2013-01-26 20:56:00,
2013-01-26 16:02:00,69.2,59.0,30.19,NE,48,4.0,4.0,70,0.00,,,0.00,362,Wunderground v.1.15,2013-01-26 21:02:00,
2013-01-26 16:08:00,69.1,59.3,30.19,ENE,65,2.0,5.0,71,0.00,,,0.00,346,Wunderground v.1.15,2013-01-26 21:08:00,
2013-01-26 16:14:00,69.1,59.3,30.19,ENE,78,2.0,5.0,71,0.00,,,0.00,323,Wunderground v.1.15,2013-01-26 21:14:00,
2013-01-26 16:20:00,68.7,59.3,30.19,ENE,64,3.0,4.0,72,0.00,,,0.00,306,Wunderground v.1.15,2013-01-26 21:20:00,
2013-01-26 16:26:00,68.8,59.4,30.19,NE,53,3.0,6.0,72,0.00,,,0.00,285,Wunderground v.1.15,2013-01-26 21:26:00,
2013-01-26 16:32:00,68.7,59.7,30.19,NE,43,3.0,3.0,73,0.00,,,0.00,269,Wunderground v.1.15,2013-01-26 21:32:00,
2013-01-26 16:38:00,68.6,59.2,30.19,ENE,60,2.0,5.0,72,0.00,,,0.00,220,Wunderground v.1.15,2013-01-26 21:38:00,
2013-01-26 16:44:00,68.6,59.2,30.19,NE,53,3.0,5.0,72,0.00,,,0.00,135,Wunderground v.1.15,2013-01-26 21:44:00,
2013-01-26 16:50:00,68.6,59.6,30.19,NE,54,2.0,4.0,73,0.00,,,0.00,128,Wunderground v.1.15,2013-01-26 21:50:00,
2013-01-26 16:56:00,68.4,59.0,30.19,NE,40,3.0,5.0,72,0.00,,,0.00,79,Wunderground v.1.15,2013-01-26 21:56:00,
2013-01-26 17:02:00,68.3,59.3,30.19,ENE,67,2.0,3.0,73,0.00,,,0.00,88,Wunderground v.1.15,2013-01-26 22:02:00,
2013-01-26 17:08:00,68.2,59.2,30.20,ENE,62,2.0,3.0,73,0.00,,,0.00,47,Wunderground v.1.15,2013-01-26 22:08:00,
2013-01-26 17:14:00,68.1,59.5,30.20,NE,53,2.0,2.0,74,0.00,,,0.00,33,Wunderground v.1.15,2013-01-26 22:14:00,
2013-01-26 17:20:00,67.9,58.9,30.20,NE,53,0.0,0.0,73,0.00,,,0.00,30,Wunderground v.1.15,2013-01-26 22:20:00,
2013-01-26 17:26:00,67.7,58.7,30.20,NE,54,0.0,2.0,73,0.00,,,0.00,28,Wunderground v.1.15,2013-01-26 22:26:00,
2013-01-26 17:32:00,67.6,58.6,30.20,NE,55,0.0,0.0,73,0.00,,,0.00,25,Wunderground v.1.15,2013-01-26 22:32:00,
2013-01-26 17:38:00,67.4,58.8,30.20,NE,55,0.0,1.0,74,0.00,,,0.00,21,Wunderground v.1.15,2013-01-26 22:38:00,
2013-01-26 17:44:00,67.3,59.1,30.20,NE,55,0.0,0.0,75,0.00,,,0.00,16,Wunderground v.1.15,2013-01-26 22:44:00,
2013-01-26 17:50:00,67.2,59.0,30.20,ENE,57,0.0,0.0,75,0.00,,,0.00,11,Wunderground v.1.15,2013-01-26 22:50:00,
2013-01-26 17:56:00,67.0,58.8,30.20,ENE,57,0.0,0.0,75,0.00,,,0.00,7,Wunderground v.1.15,2013-01-26 22:56:00,
2013-01-26 18:02:00,66.9,58.7,30.21,ENE,57,0.0,0.0,75,0.00,,,0.00,0,Wunderground v.1.15,2013-01-26 23:02:00,
2013-01-26 18:08:00,66.8,59.0,30.21,ENE,57,1.0,2.0,76,0.00,,,0.00,0,Wunderground v.1.15,2013-01-26 23:08:00,
2013-01-26 18:14:00,66.7,58.9,30.21,ENE,57,1.0,1.0,76,0.00,,,0.00,0,Wunderground v.1.15,2013-01-26 23:14:00,
2013-01-26 18:20:00,66.5,58.7,30.21,ENE,57,0.0,0.0,76,0.00,,,0.00,0,Wunderground v.1.15,2013-01-26 23:20:00,
2013-01-26 18:26:00,66.3,58.9,30.21,ENE,57,0.0,0.0,77,0.00,,,0.00,0,Wunderground v.1.15,2013-01-26 23:26:00,
2013-01-26 18:32:00,66.2,58.8,30.22,ENE,57,0.0,0.0,77,0.00,,,0.00,0,Wunderground v.1.15,2013-01-26 23:32:00,
2013-01-26 18:38:00,65.9,58.5,30.22,ENE,57,0.0,0.0,77,0.00,,,0.00,0,Wunderground v.1.15,2013-01-26 23:38:00,
2013-01-26 18:44:00,65.4,58.4,30.22,ENE,57,0.0,0.0,78,0.00,,,0.00,0,Wunderground v.1.15,2013-01-26 23:44:00,
2013-01-26 18:50:00,65.1,58.4,30.22,ENE,57,0.0,0.0,79,0.00,,,0.00,0,Wunderground v.1.15,2013-01-26 23:50:00,
2013-01-26 18:56:00,64.7,58.4,30.22,ENE,57,0.0,0.0,80,0.00,,,0.00,0,Wunderground v.1.15,2013-01-26 23:56:00,
2013-01-26 19:02:00,64.2,58.2,30.22,ENE,57,0.0,0.0,81,0.00,,,0.00,0,Wunderground v.1.15,2013-01-27 00:02:00,
2013-01-26 19:08:00,63.7,58.1,30.22,ENE,57,0.0,0.0,82,0.00,,,0.00,0,Wunderground v.1.15,2013-01-27 00:08:00,
2013-01-26 19:14:00,63.2,57.9,30.22,ENE,57,0.0,0.0,83,0.00,,,0.00,0,Wunderground v.1.15,2013-01-27 00:14:00,
2013-01-26 19:20:00,62.8,57.9,30.22,ENE,57,0.0,0.0,84,0.00,,,0.00,0,Wunderground v.1.15,2013-01-27 00:20:00,
2013-01-26 19:26:00,62.4,57.5,30.22,ENE,57,0.0,0.0,84,0.00,,,0.00,0,Wunderground v.1.15,2013-01-27 00:26:00,
2013-01-26 19:32:00,62.0,57.4,30.23,ENE,57,0.0,0.0,85,0.00,,,0.00,0,Wunderground v.1.15,2013-01-27 00:32:00,
2013-01-26 19:38:00,61.7,57.5,30.22,ENE,57,0.0,0.0,86,0.00,,,0.00,0,Wunderground v.1.15,2013-01-27 00:38:00,
2013-01-26 19:44:00,61.6,57.4,30.22,ENE,57,0.0,0.0,86,0.00,,,0.00,0,Wunderground v.1.15,2013-01-27 00:44:00,
2013-01-26 19:50:00,61.7,57.5,30.23,ENE,57,0.0,0.0,86,0.00,,,0.00,0,Wunderground v.1.15,2013-01-27 00:50:00,
2013-01-26 19:56:00,61.6,57.4,30.23,ENE,57,0.0,0.0,86,0.00,,,0.00,0,Wunderground v.1.15,2013-01-27 00:56:00,
2013-01-26 20:02:00,61.7,57.5,30.23,ENE,57,0.0,0.0,86,0.00,,,0.00,0,Wunderground v.1.15,2013-01-27 01:02:00,
2013-01-26 20:08:00,61.6,57.0,30.23,ENE,57,0.0,0.0,85,0.00,,,0.00,0,Wunderground v.1.15,2013-01-27 01:08:00,
2013-01-26 20:13:00,61.4,56.8,30.23,ENE,57,0.0,0.0,85,0.00,,,0.00,0,Wunderground v.1.15,2013-01-27 01:13:00,
2013-01-26 20:20:00,61.3,57.1,30.23,ENE,57,0.0,0.0,86,0.00,,,0.00,0,Wunderground v.1.15,2013-01-27 01:20:00,
2013-01-26 20:26:00,61.1,56.9,30.23,ENE,57,0.0,0.0,86,0.00,,,0.00,0,Wunderground v.1.15,2013-01-27 01:26:00,
2013-01-26 20:32:00,60.8,56.3,30.23,ENE,57,0.0,0.0,85,0.00,,,0.00,0,Wunderground v.1.15,2013-01-27 01:32:00,
2013-01-26 20:38:00,60.6,56.4,30.23,ENE,57,0.0,0.0,86,0.00,,,0.00,0,Wunderground v.1.15,2013-01-27 01:38:00,
2013-01-26 20:44:00,60.4,56.2,30.23,ENE,57,0.0,0.0,86,0.00,,,0.00,0,Wunderground v.1.15,2013-01-27 01:44:00,
2013-01-26 20:50:00,60.3,56.1,30.23,ENE,57,0.0,0.0,86,0.00,,,0.00,0,Wunderground v.1.15,2013-01-27 01:50:00,
2013-01-26 20:56:00,60.1,56.2,30.24,ENE,57,0.0,0.0,87,0.00,,,0.00,0,Wunderground v.1.15,2013-01-27 01:56:00,
2013-01-26 21:02:00,59.9,56.0,30.24,ENE,57,0.0,0.0,87,0.00,,,0.00,0,Wunderground v.1.15,2013-01-27 02:02:00,
2013-01-26 21:07:00,59.7,55.8,30.24,ENE,57,0.0,0.0,87,0.00,,,0.00,0,Wunderground v.1.15,2013-01-27 02:07:00,
2013-01-26 21:14:00,59.4,55.5,30.24,ENE,57,0.0,0.0,87,0.00,,,0.00,0,Wunderground v.1.15,2013-01-27 02:14:00,
2013-01-26 21:20:00,59.1,55.2,30.23,ENE,57,0.0,0.0,87,0.00,,,0.00,0,Wunderground v.1.15,2013-01-27 02:20:00,
2013-01-26 21:26:00,59.0,55.1,30.24,ENE,57,0.0,0.0,87,0.00,,,0.00,0,Wunderground v.1.15,2013-01-27 02:26:00,
2013-01-26 21:32:00,58.8,54.9,30.23,ENE,57,0.0,0.0,87,0.00,,,0.00,0,Wunderground v.1.15,2013-01-27 02:32:00,
2013-01-26 21:38:00,58.7,55.2,30.24,ENE,57,0.0,0.0,88,0.00,,,0.00,0,Wunderground v.1.15,2013-01-27 02:38:00,
2013-01-26 21:44:00,58.6,55.1,30.24,ENE,57,0.0,0.0,88,0.00,,,0.00,0,Wunderground v.1.15,2013-01-27 02:44:00,
2013-01-26 21:50:00,58.5,55.3,30.24,ENE,57,0.0,0.0,89,0.00,,,0.00,0,Wunderground v.1.15,2013-01-27 02:50:00,
2013-01-26 21:56:00,58.5,55.3,30.24,ENE,57,0.0,0.0,89,0.00,,,0.00,0,Wunderground v.1.15,2013-01-27 02:56:00,
2013-01-26 22:02:00,58.3,54.8,30.24,ENE,57,0.0,0.0,88,0.00,,,0.00,0,Wunderground v.1.15,2013-01-27 03:02:00,
2013-01-26 22:08:00,58.1,54.9,30.24,ENE,57,0.0,0.0,89,0.00,,,0.00,0,Wunderground v.1.15,2013-01-27 03:08:00,
2013-01-26 22:14:00,58.0,54.8,30.24,ENE,57,0.0,0.0,89,0.00,,,0.00,0,Wunderground v.1.15,2013-01-27 03:14:00,
2013-01-26 22:20:00,58.0,55.1,30.25,ENE,57,0.0,0.0,90,0.00,,,0.00,0,Wunderground v.1.15,2013-01-27 03:20:00,
2013-01-26 22:26:00,57.9,55.0,30.25,ENE,57,0.0,0.0,90,0.00,,,0.00,0,Wunderground v.1.15,2013-01-27 03:26:00,
2013-01-26 22:32:00,57.8,54.9,30.24,ENE,57,0.0,0.0,90,0.00,,,0.00,0,Wunderground v.1.15,2013-01-27 03:32:00,
2013-01-26 22:38:00,57.7,54.8,30.24,ENE,57,0.0,0.0,90,0.00,,,0.00,0,Wunderground v.1.15,2013-01-27 03:38:00,
2013-01-26 22:44:00,57.6,55.3,30.25,ENE,57,0.0,0.0,92,0.00,,,0.00,0,Wunderground v.1.15,2013-01-27 03:44:00,
2013-01-26 22:50:00,57.4,54.5,30.25,ENE,57,0.0,0.0,90,0.00,,,0.00,0,Wunderground v.1.15,2013-01-27 03:50:00,
2013-01-26 22:56:00,57.2,54.3,30.25,ENE,57,0.0,0.0,90,0.00,,,0.00,0,Wunderground v.1.15,2013-01-27 03:56:00,
2013-01-26 23:02:00,57.1,54.2,30.25,ENE,57,0.0,0.0,90,0.00,,,0.00,0,Wunderground v.1.15,2013-01-27 04:02:00,
2013-01-26 23:08:00,56.9,54.0,30.25,ENE,57,0.0,0.0,90,0.00,,,0.00,0,Wunderground v.1.15,2013-01-27 04:08:00,
2013-01-26 23:14:00,56.8,53.9,30.25,ENE,57,0.0,0.0,90,0.00,,,0.00,0,Wunderground v.1.15,2013-01-27 04:14:00,
2013-01-26 23:20:00,56.8,54.2,30.25,ENE,57,0.0,0.0,91,0.00,,,0.00,0,Wunderground v.1.15,2013-01-27 04:20:00,
2013-01-26 23:26:00,56.7,54.1,30.25,ENE,57,0.0,0.0,91,0.00,,,0.00,0,Wunderground v.1.15,2013-01-27 04:26:00,
2013-01-26 23:32:00,56.6,54.0,30.25,ENE,57,0.0,0.0,91,0.00,,,0.00,0,Wunderground v.1.15,2013-01-27 04:32:00,
2013-01-26 23:38:00,56.4,53.5,30.25,ENE,57,0.0,0.0,90,0.00,,,0.00,0,Wunderground v.1.15,2013-01-27 04:38:00,
2013-01-26 23:44:00,56.2,53.6,30.25,ENE,57,0.0,0.0,91,0.00,,,0.00,0,Wunderground v.1.15,2013-01-27 04:44:00,
2013-01-26 23:50:00,56.1,53.5,30.25,ENE,57,0.0,0.0,91,0.00,,,0.00,0,Wunderground v.1.15,2013-01-27 04:50:00,
2013-01-26 23:56:00,56.0,53.4,30.25,ENE,57,0.0,0.0,91,0.00,,,0.00,0,Wunderground v.1.15,2013-01-27 04:56:00,